Temp
57 48 46 51 54 54 55 52 52 57 65 59 58 62 66 69 68 65 66 68 67 69 79 79 76 75 71 67 70 74 70 67 71 71 69 68 66 66 65 67 68 68 68 69
52 47 55 59 59 56 55 51 52 57 63 59 60 60 67 68 69 70 70 68 68 68 70 73 72 72 68 66 70 70 69 67 69 67 66 68 67 66 66 66 66 66 67 68
48 54 61 60 57 55 54 52 52 52 59 62 57 56 58 65 70 69 69 70 69 70 70 71 72 68 66 67 69 69 67 68 70 68 67 66 65 65 65 64 65 66 68 70
51 60 58 57 55 58 49 60 59 58 55 46 56 42 52 60 64 67 70 68 69 70 67 67 67 66 68 68 71 71 70 70 70 67 66 65 65 63 64 65 66 68 68 67
49 54 54 53 56 61 53 63 61 59 55 48 52 44 50 56 59 62 66 70 66 66 69 69 68 68 69 69 70 69 69 68 68 68 68 66 65 67 64 65 65 64 64 66
55 63 60 58 61 62 64 61 56 55 52 42 50 46 45 51 59 62 63 68 67 70 71 70 71 70 67 69 68 68 68 68 67 67 66 65 65 63 61 62 61 61 62 63
52 54 59 63 57 61 60 53 39 37 38 37 50 47 48 59 66 68 69 64 64 64 67 67 66 66 66 65 68 68 67 65 66 65 64 64 63 63 62 61 61 61 62 62
38 38 52 61 58 50 52 53 37 30 31 37 52 43 49 66 70 70 70 65 66 64 66 66 66 66 67 66 64 67 67 66 65 66 64 63 63 62 62 63 63 63 64 65
40 41 55 61 63 59 52 47 57 43 41 37 41 50 60 62 66 67 67 66 64 63 65 65 66 66 66 66 64 64 65 65 65 64 64 64 64 64 64 64 65 64 65 64
45 37 54 56 60 62 57 57 46 43 29 27 38 43 43 49 52 60 61 57 59 63 65 65 65 65 65 65 65 65 64 61 62 63 65 65 64 65 65 64 62 62 60 60
50 44 47 53 52 50 51 51 51 46 41 31 35 38 51 50 50 52 51 57 59 57 62 65 65 66 64 65 65 63 64 63 62 62 61 62 61 62 62 60 61 61 59 59
53 45 38 44 52 57 52 52 48 37 38 42 41 39 55 52 52 53 54 56 55 58 59 59 63 64 65 63 63 61 60 61 61 61 63 60 61 60 59 60 60 61 61 61
50 39 33 40 47 52 50 54 57 48 45 39 37 36 52 55 54 53 52 53 56 57 56 59 59 58 61 61 61 61 61 60 60 61 60 58 59 58 60 60 58 59 61 62
51 41 39 33 40 45 45 51 50 47 36 40 42 42 48 50 50 53 54 53 54 56 56 58 56 55 58 59 60 60 58 58 59 59 58 57 57 57 58 60 62 62 60 58
47 40 42 42 47 46 48 48 48 45 45 41 45 47 47 49 50 52 56 56 59 58 57 57 56 56 55 55 57 58 57 58 57 57 57 56 56 56 56 57 56 56 57 59
45 39 43 38 43 45 46 49 49 48 49 47 48 45 54 53 58 56 56 58 59 59 59 59 60 58 56 56 56 57 56 56 57 56 56 57 56 55 53 53 53 53 52 53
41 40 39 34 43 40 39 46 48 50 51 51 43 47 54 54 56 55 58 60 58 59 59 58 58 57 56 55 56 54 55 56 56 55 57 56 55 54 52 52 51 50 48 48
43 41 40 36 40 30 48 57 58 53 54 54 51 50 54 53 55 56 59 58 58 59 58 56 54 54 55 55 55 54 56 55 55 54 55 55 54 53 51 50 48 47 45 45
50 44 37 33 33 45 49 52 51 47 45 55 51 51 52 55 55 51 57 56 54 55 54 54 54 54 54 54 54 54 53 53 54 53 53 54 52 49 47 45 43 43 43 43
51 45 38 34 31 30 44 54 59 55 38 51 55 52 52 51 41 44 53 56 55 55 55 54 55 54 52 51 51 51 49 49 50 52 51 48 47 45 43 41 41 41 41 42
37 36 32 30 29 40 51 54 57 36 39 52 52 49 50 47 47 50 53 54 54 54 54 53 51 48 46 47 47 45 44 43 46 47 46 45 43 43 40 39 38 38 38 38
35 32 28 31 26 29 53 53 44 44 48 50 50 48 48 49 50 50 51 50 50 48 48 48 47 45 45 45 44 41 39 42 44 43 42 41 39 42 42 36 36 36 35 35
34 41 34 36 34 44 49 48 49 52 50 53 51 50 51 49 48 48 46 46 46 45 44 44 43 42 42 43 41 38 38 41 41 38 37 36 38 38 36 34 33 33 35 37
45 47 40 41 47 47 49 50 51 51 49 51 51 49 49 45 46 45 44 42 42 42 42 42 41 40 39 39 41 38 39 39 37 35 34 34 33 34 33 34 34 34 37 38
43 46 41 40 46 50 53 52 50 50 51 48 48 47 45 45 43 42 41 41 40 39 39 39 38 37 36 37 37 36 37 36 33 32 32 31 31 30 32 35 37 37 39 39
44 41 38 39 47 45 46 52 53 48 45 46 45 43 43 43 40 40 37 38 37 36 36 35 35 34 35 35 35 35 35 34 30 29 33 33 34 35 36 35 36 40 39 39
MSLP
1006.63 1007.00 1005.54 1006.31 1006.85 1006.76 1006.32 1005.86 1005.54 1004.51 1004.16 1004.23 1003.67 1002.78 1002.73 1002.38 1002.48 1002.63 1002.58 1002.61 1002.26 1001.79 1000.82 1000.76 1001.16 1001.56 1002.07 1003.05 1003.79 1004.22 1005.07 1006.36 1006.63 1007.38 1007.94 1008.54 1009.27 1009.61 1009.85 1010.02 1009.83 1009.92 1010.14 1010.56
1006.58 1004.92 1005.97 1006.10 1005.93 1006.01 1005.93 1005.64 1004.59 1004.37 1003.87 1004.17 1003.60 1002.84 1002.09 1001.86 1001.63 1001.55 1001.67 1001.66 1001.55 1001.20 1000.84 1000.86 1001.12 1001.63 1002.19 1002.84 1003.61 1004.45 1004.90 1005.78 1006.23 1006.77 1007.30 1007.92 1008.70 1009.59 1009.88 1009.97 1009.96 1010.03 1010.07 1010.36
1005.46 1004.74 1004.99 1005.14 1004.94 1004.82 1004.79 1004.76 1004.27 1004.48 1004.13 1003.89 1003.57 1002.56 1001.61 1000.80 1000.77 1000.70 1000.71 1000.55 1000.86 1000.65 1000.43 1000.60 1001.05 1001.58 1002.17 1002.99 1003.58 1004.32 1004.91 1005.11 1005.38 1006.20 1007.29 1008.35 1009.10 1009.78 1010.00 1010.43 1010.29 1009.93 1009.28 1009.05
1004.91 1004.57 1004.25 1004.36 1003.98 1004.09 1003.98 1003.56 1004.33 1004.25 1004.78 1004.28 1003.38 1002.97 1001.65 1000.83 1000.59 1000.41 1000.31 1000.62 1000.63 1000.28 1000.29 1000.46 1000.78 1001.58 1001.81 1002.74 1003.35 1003.67 1004.33 1004.75 1005.15 1006.38 1006.97 1007.77 1008.60 1009.53 1009.58 1008.39 1008.41 1008.64 1008.73 1009.58
1003.62 1003.54 1003.79 1003.53 1003.14 1003.66 1002.86 1003.68 1004.00 1003.99 1004.48 1004.18 1003.58 1003.86 1001.49 1000.85 1000.51 1000.24 1000.20 1000.57 1000.81 1000.35 1000.36 1000.83 1001.20 1001.85 1002.31 1002.99 1003.55 1004.17 1004.66 1005.33 1006.00 1006.78 1007.15 1007.43 1008.19 1008.62 1009.11 1009.06 1008.71 1009.35 1009.34 1009.35
1003.35 1003.07 1002.84 1002.65 1003.00 1002.95 1003.40 1003.62 1003.69 1004.14 1004.24 1004.33 1003.00 1003.56 1002.15 1001.14 1000.23 999.91 1000.05 1000.56 1000.99 1000.79 1000.76 1001.29 1001.66 1002.22 1003.00 1003.53 1004.00 1004.38 1004.68 1005.44 1006.29 1006.62 1006.78 1007.44 1008.00 1008.71 1009.09 1009.46 1009.72 1009.96 1010.05 1010.18
1003.25 1002.76 1002.38 1002.44 1002.43 1002.43 1002.88 1004.04 1004.45 1004.75 1004.53 1003.47 1002.92 1002.97 1001.57 1000.22 999.79 999.55 999.82 1000.92 1001.19 1001.22 1001.49 1001.80 1002.32 1003.27 1003.62 1003.92 1004.28 1004.69 1005.07 1005.59 1006.13 1006.78 1007.07 1007.49 1007.87 1008.51 1008.89 1009.30 1009.57 1009.82 1010.13 1010.25
1003.47 1003.20 1002.19 1001.64 1001.37 1001.80 1002.15 1002.97 1003.74 1004.35 1004.23 1003.83 1002.69 1002.09 1001.31 1000.09 999.84 999.61 1000.53 1000.64 1001.42 1001.76 1002.26 1002.77 1003.10 1003.66 1004.20 1004.71 1005.20 1005.37 1005.63 1005.86 1006.40 1006.84 1007.15 1007.45 1007.89 1008.32 1008.92 1008.96 1008.96 1008.95 1008.94 1009.19
1003.73 1003.10 1001.81 1000.76 1000.73 1001.20 1001.68 1002.41 1002.78 1003.93 1004.69 1004.15 1003.64 1002.39 1001.49 1001.32 1000.50 1002.04 1000.93 1001.79 1001.84 1002.21 1002.65 1003.27 1003.82 1004.18 1004.55 1005.00 1005.64 1005.70 1006.01 1006.63 1007.15 1007.24 1007.55 1007.95 1008.26 1008.48 1008.68 1008.65 1008.74 1008.99 1009.06 1009.19
1003.74 1003.54 1001.71 1000.87 1000.68 1000.78 1000.91 1001.51 1002.55 1003.79 1004.96 1005.41 1004.95 1004.38 1004.51 1003.84 1003.55 1003.33 1002.86 1003.28 1003.45 1003.33 1003.58 1003.90 1004.42 1004.90 1005.38 1005.76 1006.15 1006.54 1006.72 1006.88 1007.15 1007.26 1007.45 1007.80 1008.07 1008.32 1008.50 1008.59 1008.83 1008.97 1009.07 1009.22
1002.72 1003.25 1002.30 1001.38 1000.75 1000.68 1001.10 1001.34 1001.84 1002.96 1004.13 1005.26 1005.79 1005.85 1005.33 1005.55 1005.41 1005.20 1005.02 1004.48 1004.38 1004.51 1004.77 1004.88 1005.26 1005.53 1005.74 1006.44 1006.89 1007.19 1007.48 1007.87 1008.15 1008.29 1008.37 1008.43 1008.75 1008.64 1008.95 1009.09 1009.04 1009.07 1009.30 1009.31
1001.95 1002.72 1002.78 1002.10 1001.50 1001.54 1001.50 1000.82 1001.53 1002.43 1004.01 1004.87 1006.02 1006.40 1005.75 1005.67 1006.19 1006.52 1006.13 1005.63 1005.40 1005.57 1005.69 1006.14 1006.23 1006.25 1007.09 1007.50 1007.96 1008.43 1008.79 1008.86 1009.12 1009.08 1008.94 1009.00 1009.26 1009.36 1009.45 1009.67 1009.79 1009.92 1009.70 1009.51
1002.08 1002.94 1003.26 1002.53 1002.26 1001.72 1001.53 1001.20 1001.28 1002.14 1003.66 1004.75 1005.68 1006.64 1006.58 1006.00 1007.42 1007.61 1006.78 1006.41 1006.24 1006.30 1006.53 1006.74 1007.00 1007.66 1007.77 1008.44 1008.89 1009.35 1009.53 1009.66 1009.69 1009.52 1009.49 1009.71 1009.82 1009.77 1009.83 1009.91 1009.95 1009.99 1009.87 1009.59
1002.37 1002.69 1002.87 1002.96 1002.88 1002.51 1001.83 1001.29 1001.66 1002.40 1003.53 1004.28 1004.78 1005.82 1006.42 1006.55 1007.64 1008.06 1007.65 1006.93 1006.48 1006.54 1007.02 1007.63 1007.86 1008.22 1008.69 1009.28 1009.55 1009.75 1010.16 1010.06 1010.19 1010.29 1010.16 1010.12 1010.21 1010.13 1010.04 1009.96 1009.98 1009.92 1009.92 1010.02
1002.84 1002.92 1003.19 1003.55 1002.98 1002.56 1001.95 1001.70 1001.84 1002.27 1003.01 1003.79 1004.59 1004.85 1005.66 1006.11 1006.82 1007.46 1008.00 1007.39 1007.07 1007.40 1007.83 1008.36 1008.49 1009.40 1009.42 1009.57 1009.81 1010.10 1010.50 1010.40 1010.49 1010.68 1010.76 1010.86 1010.62 1010.55 1010.50 1010.55 1010.63 1010.61 1010.53 1010.48
1003.04 1003.09 1003.35 1003.92 1003.54 1003.21 1002.90 1001.98 1002.09 1002.37 1002.97 1003.83 1004.50 1005.25 1005.67 1006.36 1006.76 1006.90 1007.16 1007.77 1007.53 1008.10 1008.54 1008.93 1009.60 1009.71 1009.79 1010.06 1010.31 1010.60 1010.86 1010.76 1010.74 1011.12 1011.38 1011.42 1011.46 1011.39 1011.44 1011.33 1011.30 1011.28 1011.26 1011.19
1003.20 1003.39 1003.75 1004.17 1003.36 1003.73 1002.40 1001.76 1001.77 1001.97 1002.65 1003.46 1004.48 1004.97 1005.67 1006.84 1006.86 1007.51 1007.28 1007.53 1008.07 1008.91 1009.27 1009.88 1010.09 1010.10 1010.37 1010.64 1010.70 1010.80 1010.85 1010.98 1011.27 1011.46 1011.65 1011.75 1011.84 1011.95 1012.04 1011.97 1011.91 1011.92 1011.95 1011.80
1003.01 1003.70 1003.71 1003.97 1003.71 1003.08 1001.36 1000.18 1000.48 1001.21 1002.31 1003.46 1004.13 1004.80 1005.63 1006.40 1007.27 1007.46 1008.04 1008.10 1008.39 1009.14 1009.88 1009.93 1010.26 1010.38 1010.61 1010.82 1011.05 1011.10 1011.22 1011.57 1011.56 1011.42 1011.51 1011.86 1011.94 1012.06 1012.26 1012.40 1012.51 1012.46 1012.27 1012.24
1002.42 1002.92 1003.20 1003.79 1003.92 1002.52 1001.53 1001.42 1001.21 1001.86 1003.93 1003.75 1004.32 1005.22 1005.87 1007.27 1007.01 1008.81 1008.89 1008.97 1008.94 1009.75 1010.28 1010.42 1010.58 1010.70 1010.77 1010.83 1011.17 1011.58 1011.91 1011.91 1011.82 1011.98 1012.08 1012.34 1012.32 1012.52 1012.73 1012.84 1012.94 1012.89 1012.69 1012.49
1002.28 1002.43 1002.76 1003.90 1004.05 1003.46 1002.97 1002.23 1002.18 1002.61 1005.03 1005.42 1004.78 1005.79 1006.41 1006.86 1008.11 1009.38 1009.26 1009.13 1009.66 1010.06 1010.24 1010.58 1010.80 1011.18 1011.43 1011.85 1011.94 1012.25 1012.51 1012.53 1012.63 1012.66 1013.05 1013.02 1012.92 1013.01 1013.15 1013.25 1013.21 1013.10 1012.87 1012.63
1003.21 1003.61 1004.46 1004.72 1004.85 1004.31 1003.41 1002.72 1002.53 1003.99 1006.79 1006.42 1006.23 1006.84 1007.19 1007.73 1008.36 1009.03 1009.26 1009.51 1009.64 1010.17 1010.66 1010.95 1011.51 1012.15 1012.63 1012.66 1012.79 1013.38 1013.79 1014.09 1014.16 1013.87 1013.76 1013.73 1013.69 1013.54 1013.62 1013.59 1013.42 1013.27 1012.97 1012.53
1003.98 1004.52 1005.43 1005.38 1005.73 1005.46 1004.11 1003.50 1004.10 1005.99 1006.77 1006.93 1007.31 1007.65 1008.21 1008.70 1009.39 1009.94 1010.38 1010.93 1011.20 1011.54 1011.76 1012.13 1012.60 1013.32 1013.67 1013.82 1014.00 1014.64 1014.78 1014.87 1014.66 1014.56 1014.47 1014.39 1014.21 1013.96 1013.74 1013.73 1013.49 1013.19 1012.84 1012.45
1004.19 1004.49 1005.26 1005.93 1006.26 1005.75 1004.76 1005.01 1005.77 1006.22 1006.96 1007.61 1008.09 1008.79 1009.39 1010.27 1010.82 1011.20 1011.88 1012.22 1012.66 1013.04 1013.35 1013.59 1013.76 1014.18 1014.40 1014.58 1014.74 1015.15 1015.48 1015.35 1015.21 1015.05 1014.85 1014.62 1014.35 1014.05 1013.87 1013.63 1013.28 1012.99 1012.62 1012.25
1004.18 1004.28 1005.57 1006.11 1006.95 1006.46 1006.24 1006.49 1006.77 1007.26 1008.09 1008.68 1009.04 1009.66 1010.23 1011.44 1011.93 1012.44 1012.83 1013.46 1013.90 1014.18 1014.47 1014.66 1014.82 1015.15 1015.46 1015.51 1015.57 1015.74 1015.83 1015.68 1015.40 1015.12 1014.89 1014.66 1014.42 1014.09 1013.85 1013.50 1013.20 1012.79 1012.38 1011.98
1004.81 1004.55 1005.82 1007.02 1007.43 1007.37 1007.35 1007.67 1008.23 1008.70 1009.20 1009.86 1010.48 1010.91 1011.63 1012.15 1012.99 1013.38 1013.89 1014.46 1014.65 1014.88 1015.04 1015.15 1015.29 1015.53 1015.83 1015.86 1015.87 1015.93 1015.81 1015.58 1015.39 1015.22 1014.99 1014.73 1014.41 1014.06 1013.64 1013.24 1012.88 1012.54 1012.05 1011.84
1005.48 1005.84 1006.26 1006.88 1007.34 1007.50 1008.31 1008.72 1009.02 1009.79 1010.74 1011.32 1011.56 1012.28 1012.88 1013.29 1014.02 1014.36 1014.85 1015.17 1015.25 1015.56 1015.77 1015.88 1016.00 1016.02 1016.06 1015.98 1015.94 1015.86 1015.72 1015.59 1015.43 1015.29 1015.03 1014.74 1014.33 1013.88 1013.45 1013.00 1012.45 1012.01 1011.77 1011.40
Wind_Speed
7 6 21 15 13 5 5 6 8 5 13 6 10 19 17 15 10 9 10 10 9 11 19 15 10 9 9 8 11 15 13 8 10 8 8 5 4 3 3 3 5 6 6 8
8 21 8 8 8 10 10 9 16 6 12 6 14 19 21 14 15 15 14 10 11 8 10 9 9 7 9 9 14 12 13 14 10 7 3 3 6 3 2 3 4 5 6 6
15 9 17 11 12 12 13 15 13 12 8 8 6 16 9 9 13 7 8 9 7 10 9 10 8 7 7 12 14 15 15 16 13 8 8 6 7 4 4 2 4 9 13 14
12 19 14 20 16 13 15 16 13 17 9 9 5 8 4 6 9 6 9 7 8 6 3 3 6 8 9 9 12 17 18 16 10 8 7 6 6 7 5 10 11 12 8 3
11 18 18 19 22 18 16 11 15 20 15 5 8 1 9 3 7 7 9 7 7 7 13 10 9 9 8 10 11 11 12 9 10 10 10 10 9 7 1 3 1 4 1 3
10 9 18 21 19 19 17 15 11 17 4 6 17 8 7 5 8 5 3 9 7 13 17 15 14 12 8 8 9 10 13 10 10 11 8 10 7 3 3 1 1 2 2 3
10 16 12 13 17 21 18 12 4 5 5 10 7 6 8 6 6 6 6 12 8 7 13 14 15 13 9 6 10 9 11 10 11 10 9 9 7 7 7 7 6 6 4 5
5 9 14 12 18 8 5 17 6 6 4 6 1 6 6 8 2 4 12 15 12 12 14 15 13 13 13 13 8 3 9 9 11 12 7 6 6 4 4 5 6 6 7 7
5 7 4 14 11 10 12 7 16 2 0 4 2 7 5 15 13 11 19 12 13 11 13 16 15 14 13 13 11 10 11 5 5 5 3 3 3 5 6 7 6 6 3 3
10 4 5 6 2 11 11 5 5 2 5 3 5 3 1 10 11 3 13 9 6 10 14 15 15 14 13 12 11 13 12 11 9 7 6 5 6 7 5 3 3 4 4 3
12 10 4 4 8 13 6 8 4 8 6 6 2 1 3 6 8 8 8 6 10 9 9 14 14 14 13 12 11 9 11 11 11 8 7 9 7 6 5 4 3 4 4 5
6 4 6 8 1 4 5 5 5 6 4 4 6 4 1 9 12 6 7 9 9 14 14 10 9 14 14 13 12 9 7 7 7 5 8 8 7 7 7 7 6 3 4 3
5 0 2 2 3 2 5 7 12 5 6 7 8 4 3 11 10 7 6 7 9 12 13 12 13 8 12 12 11 10 9 8 7 7 9 7 7 7 6 6 5 4 4 5
1 5 6 7 3 2 6 3 5 7 5 5 5 7 7 11 7 2 4 8 10 12 12 12 11 9 10 10 10 9 8 7 7 7 7 7 6 6 6 6 7 7 6 7
2 7 5 3 3 5 2 5 4 5 3 6 6 9 12 15 15 10 5 3 11 10 12 11 12 8 8 9 9 9 7 8 6 8 8 7 7 7 8 8 8 7 7 8
4 2 4 4 4 0 9 6 6 4 7 7 3 8 4 4 10 10 8 3 10 12 13 11 9 9 8 7 7 6 6 7 8 8 7 7 7 7 7 8 8 8 8 8
4 4 3 5 15 13 3 13 9 6 5 5 5 5 10 5 7 3 12 16 16 13 13 10 9 8 6 6 6 6 6 5 6 6 6 7 6 7 6 5 6 6 5 5
6 6 4 9 9 3 5 11 9 6 6 5 8 11 10 13 9 12 10 15 14 12 9 7 6 6 5 4 5 4 5 5 5 6 7 6 6 6 6 8 9 8 6 6
3 5 3 5 3 5 11 7 8 18 9 3 9 11 23 14 19 9 8 8 11 8 6 6 5 3 3 4 4 6 5 4 5 5 5 5 6 7 8 7 6 5 5 5
1 4 5 4 5 4 3 3 7 6 9 10 13 18 19 7 7 4 5 8 8 8 7 7 6 5 7 5 5 7 7 7 7 6 7 7 6 6 6 6 6 3 3 4
4 4 4 4 4 3 3 5 3 8 7 5 11 5 6 5 4 6 6 5 5 7 7 8 13 12 8 8 9 11 9 10 7 8 7 8 7 5 5 4 3 5 5 5
3 4 0 3 5 0 5 5 6 6 6 11 10 6 10 8 7 6 8 8 12 11 12 11 12 10 7 8 8 7 8 5 6 6 6 5 5 6 5 5 5 5 5 5
3 4 4 4 4 4 6 12 7 11 11 7 9 8 12 8 8 8 8 10 10 9 7 6 7 7 7 7 7 7 4 5 5 4 4 4 5 4 4 5 5 4 5 5
4 2 6 6 4 9 10 7 7 8 10 11 13 12 14 11 9 11 9 7 7 6 6 4 6 6 6 5 7 6 5 4 4 5 6 5 5 7 5 4 4 4 5 5
3 5 6 7 9 8 8 10 13 13 13 17 16 15 12 13 9 8 7 6 6 6 5 5 6 6 5 4 5 4 3 4 4 4 4 5 4 5 5 4 4 5 6 6
3 5 4 4 11 8 6 12 14 16 13 11 14 14 12 11 9 8 7 5 6 6 4 5 6 5 5 5 4 5 5 5 5 5 6 6 6 5 5 5 6 7 10 13
Wind_Direction
210 192 222 224 229 244 262 231 254 230 236 214 249 263 259 251 236 232 237 236 239 237 232 229 226 212 211 140 165 175 146 152 144 136 136 137 142 104 59 51 95 115 134 155
235 232 229 215 225 199 229 255 255 295 260 200 252 257 252 233 229 228 227 239 246 240 236 239 218 212 188 152 160 163 159 156 157 152 130 115 132 124 127 125 138 179 175 194
221 249 211 226 233 231 227 235 249 246 295 264 274 286 232 224 211 217 236 239 233 228 233 227 215 198 152 144 156 158 171 168 172 154 120 91 75 85 117 177 222 216 200 203
236 231 257 212 234 225 233 232 246 259 260 258 134 270 249 200 201 206 229 216 188 173 84 84 137 155 160 152 163 170 172 174 160 127 126 148 165 163 234 191 204 209 196 241
215 195 221 233 228 234 251 240 241 249 249 261 262 191 269 241 235 241 227 172 240 106 100 86 96 106 93 110 134 141 145 148 150 174 186 184 192 204 254 291 273 293 278 207
236 227 206 228 237 235 245 247 303 294 225 237 245 161 271 194 199 247 156 149 165 115 103 90 82 86 105 131 132 153 157 159 161 179 182 191 182 176 94 195 209 242 251 265
243 248 260 263 223 235 222 220 202 276 192 220 198 189 214 246 208 241 222 159 148 107 94 92 85 78 63 141 160 159 163 167 162 170 178 181 169 162 169 180 195 191 200 221
178 252 232 241 226 193 210 194 179 207 224 220 277 250 258 268 54 125 131 128 121 103 103 99 94 86 79 64 58 145 175 173 172 188 179 169 186 183 199 197 207 214 213 219
172 242 297 210 208 172 241 194 202 169 338 80 278 318 37 355 110 131 127 127 119 110 107 103 96 86 83 79 72 71 72 93 148 143 138 195 197 208 226 236 218 225 218 196
185 295 261 239 228 251 223 208 149 48 155 97 305 89 27 348 349 324 111 89 66 106 103 98 90 87 81 81 72 66 65 70 55 72 85 76 65 48 26 63 75 95 107 76
165 175 258 345 195 226 244 221 198 131 138 136 185 234 158 51 17 22 2 56 89 75 85 107 106 98 85 82 79 67 69 69 68 67 63 78 75 80 93 107 135 160 146 177
182 149 217 228 256 327 228 270 156 149 189 158 114 255 117 69 46 13 44 59 62 70 68 48 74 105 93 82 71 62 47 65 76 84 77 57 65 68 69 65 64 65 114 147
167 117 115 337 355 250 200 233 219 97 122 200 157 224 170 86 53 1 38 55 68 71 63 57 49 35 78 81 79 71 63 65 51 57 70 60 50 54 58 67 76 73 68 55
34 157 180 176 161 241 167 196 114 150 129 148 185 148 143 111 130 51 36 74 64 60 66 73 72 65 71 71 74 71 60 60 56 52 50 52 48 51 41 36 34 30 38 48
322 184 139 69 323 2 4 97 114 103 124 130 185 146 161 148 144 149 190 111 98 92 95 91 87 78 69 70 62 56 48 53 56 47 41 23 21 26 35 39 33 29 32 24
309 48 110 352 309 199 252 136 113 105 102 96 88 109 152 140 138 140 122 169 100 106 102 99 102 97 84 73 72 78 59 44 42 38 43 49 50 42 35 27 25 30 23 18
127 136 136 181 172 167 242 179 188 148 146 143 169 134 141 131 120 191 140 134 122 121 121 119 119 114 114 114 101 73 60 49 55 56 48 45 44 44 34 38 39 27 11 1
146 169 212 151 172 89 359 175 153 138 163 196 134 165 123 116 110 99 112 120 119 121 124 114 114 106 111 124 122 120 70 61 55 43 44 35 39 41 33 34 26 24 16 14
218 170 101 114 214 134 35 4 123 121 54 154 156 136 120 126 95 67 109 112 112 118 126 125 132 125 102 121 129 103 85 69 52 56 42 30 34 45 52 38 20 14 10 356
14 45 114 113 88 115 201 101 129 86 67 1 95 127 138 145 94 183 156 120 118 123 121 122 135 91 82 59 78 72 45 32 26 17 42 50 45 58 49 31 12 344 330 315
11 9 69 61 101 41 40 339 29 71 160 145 96 103 107 94 139 160 142 102 102 61 55 51 61 62 42 33 54 54 47 39 30 52 44 41 24 25 40 6 344 334 323 313
122 103 122 65 76 83 0 20 93 152 108 108 92 90 89 94 84 84 70 61 73 64 57 57 73 64 52 57 74 66 53 15 30 36 35 22 11 355 353 344 323 314 309 307
64 162 144 101 185 283 27 101 93 113 107 95 87 91 95 87 90 98 93 92 80 75 67 57 70 64 40 52 70 78 33 26 23 21 3 339 332 326 342 325 314 316 307 313
37 142 116 87 65 82 88 68 72 71 80 85 84 82 81 79 71 81 78 72 81 80 80 82 84 84 78 82 75 85 47 18 9 347 332 323 329 331 313 304 297 302 311 314
255 32 88 82 82 74 73 79 91 83 78 78 70 75 82 83 65 78 74 73 75 70 60 57 61 66 68 64 73 61 26 8 355 328 314 323 311 308 304 299 310 306 293 288
349 163 125 177 168 118 94 106 102 81 79 79 87 71 59 70 73 79 67 61 72 65 56 59 60 65 43 30 15 14 10 5 351 337 336 325 319 317 314 310 308 285 271 287